{"data":{"norad_id":56049,"intl_designator":"2023-043D","name":"ONEWEB-0547","alt_names":[],"object_type":"PAYLOAD","status":"ACTIVE","operator":null,"country":"UK","launch_date":"2023-03-26","launch_site_code":"SRILR","launch_vehicle":null,"mission":null,"orbit_class":"UNKNOWN","rcs_meters":null,"size_class":null,"mass_kg":null,"dimensions":null,"purposes":["comms"],"wikipedia_slug":null,"has_3d_model":false,"image_url":null,"decayed_at":null,"tle_current":{"epoch":"2026-05-25T00:13:24.631104Z","epoch_age_seconds":70283,"freshness":"FRESH","line1":"1 56049U 23043D   26145.00931286 -.00000230  00000+0 -58837-3 0  9993","line2":"2 56049  87.9252 248.5849 0001783 100.5445 259.5890 13.21825449155162","mean_motion":13.21825449,"eccentricity":0.0001783,"inclination_deg":87.9252,"raan_deg":248.5849,"arg_perigee_deg":100.5445,"mean_anomaly_deg":259.589,"bstar":-0.00058837,"rev_number":15516,"period_min":108.94025388068,"perigee_km":1176.4082525114,"apogee_km":1179.1026837655,"semimajor_km":7555.8924681385,"source":"CELESTRAK","updated_at":"2026-05-25T13:38:22.700191Z"}}}